Tracking 21612 objects as of 20-Oct-2020
HD Live streaming from Space Station
objects crossing your sky now

SL-8 R/B

Track SL-8 R/B now!
10-day predictions


NORAD ID: 19910
Int'l Code: 1989-025J
Perigee: 1,480.4 km
Apogee: 1,690.0 km
Inclination: 74.0 °
Period: 117.7 minutes
Semi major axis: 7956 km
RCS: 5.745 m2 (large)
Launch date: March 24, 1989
Source: Commonwealth of Independent States (former USSR) (CIS)
Launch site: PLESETSK MISSILE AND SPACE COMPLEX (PKMTR)

Note: This is a ROCKET BODY
aabbcc
Your satellite tracking list
Your tracking list is empty




NASA's NSSDC Master Catalog

Two Line Element Set (TLE):
1 19910U 89025J   20293.21969858 +.00000017 +00000-0 +28882-3 0  9997
2 19910 074.0082 204.2004 0131710 014.8233 138.9226 12.23327763410012
Source of the keplerian elements: AFSPC